Location: Kelshall
(52.0000°N, 0.0500°W)
Time: 12:12:16
(UTC+00:00)

Okean 1 Rocket - Pass Details

Date: 19 January 2021
Orbit: 605 x 635 km, 82.5° (Epoch: 05 March)

Event Time Altitude Azimuth Distance (km) Brightness Sun altitude
Exits shadow 05:52:39 20° 337° (NNW) 1,488 4.7 -18.6°
Drops below altitude 10° 05:54:22 10° 353° (N) 2,027 5.5 -18.4°
Sets 05:56:51 0° 4° (N) 2,936 6.5 -18.0°
